Weather History for EGPN - March, 2013

Change the Weather History Date:

Sunday, March 24, 2013

  Actual Average Record
Temperature  
Mean Temperature 35 °F -  
Max Temperature 35 °F 50 °F 59 °F (2011)
Min Temperature 35 °F 41 °F 32 °F (2008)
Degree Days  
Heating Degree Days 30    
Moisture  
Dew Point 26 °F    
Average Humidity 68    
Maximum Humidity 75    
Minimum Humidity 60    
Precipitation  
Precipitation 0.00 in - - ()
Sea Level Pressure  
Sea Level Pressure 30.31 in    
Wind  
Wind Speed 20 mph ()    
Max Wind Speed 26 mph    
Max Gust Speed -    
Visibility 6.2 miles    
Events Snow    
Averages and records for this station are not official NWS values.
T = Trace of Precipitation, MM = Missing Value Source: Averaged Metar Reports

Daily Weather History Graph

Daily Weather History Graph

Search for Another Location

Airport or City:

Trip Planner

Search our weather history database for the weather conditions in past years. The results will help you decide how hot, cold, wet, or windy it might be!

Date:

Astronomy

Mar. 24, 2013 Rise Set
Actual Time 6:03 AM GMT 6:34 PM GMT
Civil Twilight 5:25 AM GMT 7:12 PM GMT
Nautical Twilight 4:40 AM GMT 7:58 PM GMT
Astronomical Twilight 3:51 AM GMT 8:47 PM GMT
Moon 3:22 PM GMT (3/24) 4:35 AM GMT (3/24)
Length of Visible Light 13h 46m
Length of Day
12h 31m
Waxing Gibbous, 90% of the Moon is Illuminated
Mar 24
Waxing Gibbous
Mar 27
Full
Apr 3
Last Quarter
Apr 10
New
Apr 18
First Quarter

Hourly Weather History & Observations

Time (GMT) Temp. Windchill Dew Point Humidity Pressure Visibility Wind Dir Wind Speed Gust Speed Precip Events Conditions
8:50 AM 35.6 °F 23.7 °F 24.8 °F 65% 30.30 in 6.2 mi East 24.2 mph - N/A   Mostly Cloudy
9:20 AM 35.6 °F 23.7 °F 23.0 °F 60% 30.30 in 6.2 mi East 24.2 mph - N/A   Mostly Cloudy
9:50 AM 35.6 °F 23.7 °F 24.8 °F 65% 30.30 in 6.2 mi East 24.2 mph - N/A   Mostly Cloudy
10:20 AM 35.6 °F 23.7 °F 24.8 °F 65% 30.30 in 6.2 mi East 24.2 mph - N/A   Mostly Cloudy
10:50 AM 35.6 °F 24.2 °F 26.6 °F 70% 30.30 in 6.2 mi East 21.9 mph - N/A   Mostly Cloudy
11:20 AM 35.6 °F 23.2 °F 24.8 °F 65% 30.30 in 6.2 mi East 26.5 mph - N/A Snow Light Snow Grains
11:50 AM 35.6 °F 24.0 °F 24.8 °F 65% 30.30 in 6.2 mi East 23.0 mph - N/A Snow Light Snow Grains
12:20 PM 35.6 °F 23.7 °F 28.4 °F 75% 30.30 in 6.2 mi East 24.2 mph - N/A Snow Light Snow Grains
12:50 PM 35.6 °F 23.7 °F 24.8 °F 65% 30.30 in 6.2 mi East 24.2 mph - N/A   Mostly Cloudy
1:20 PM 35.6 °F 24.2 °F 26.6 °F 70% 30.30 in 6.2 mi East 21.9 mph - N/A Snow Light Snow
1:50 PM 35.6 °F 23.7 °F 26.6 °F 70% 30.30 in 6.2 mi ESE 24.2 mph - N/A Snow Light Snow
2:20 PM 35.6 °F 24.5 °F 28.4 °F 75% 30.30 in 6.2 mi East 20.7 mph - N/A Snow Light Snow
2:50 PM 35.6 °F 24.0 °F 26.6 °F 70% 30.30 in 6.2 mi East 23.0 mph - N/A   Mostly Cloudy
3:20 PM 35.6 °F 24.8 °F 26.6 °F 70% 30.30 in 6.2 mi East 19.6 mph - N/A   Mostly Cloudy
3:50 PM 35.6 °F 24.2 °F 28.4 °F 75% 30.30 in 6.2 mi East 21.9 mph - N/A   Mostly Cloudy
4:20 PM 35.6 °F 24.8 °F 28.4 °F 75% 30.30 in 6.2 mi East 19.6 mph - N/A   Mostly Cloudy
5:20 PM 35.6 °F 24.2 °F 26.6 °F 70% 30.30 in 6.2 mi East 21.9 mph - N/A   Mostly Cloudy
5:50 PM 35.6 °F 24.5 °F 26.6 °F 70% 30.30 in 6.2 mi East 20.7 mph - N/A   Mostly Cloudy
6:20 PM 35.6 °F 25.2 °F 28.4 °F 75% 30.33 in 6.2 mi East 18.4 mph - N/A   Mostly Cloudy
6:50 PM 35.6 °F 24.5 °F 26.6 °F 70% 30.30 in 6.2 mi East 20.7 mph - N/A   Mostly Cloudy
7:20 PM 35.6 °F 24.0 °F 24.8 °F 65% 30.33 in 6.2 mi East 23.0 mph - N/A   Mostly Cloudy
7:50 PM 35.6 °F 24.5 °F 24.8 °F 65% 30.33 in 6.2 mi East 20.7 mph - N/A   Mostly Cloudy
8:20 PM 35.6 °F 24.8 °F 24.8 °F 65% 30.33 in 6.2 mi East 19.6 mph - N/A   Mostly Cloudy
8:50 PM 35.6 °F 24.5 °F 24.8 °F 65% 30.33 in 6.2 mi East 20.7 mph - N/A   Mostly Cloudy
9:20 PM 35.6 °F 25.2 °F 24.8 °F 65% 30.33 in 6.2 mi East 18.4 mph - N/A   Mostly Cloudy